Voltar ao catálogo

INTELSAT 2-F2

AtivoComunicaçõesGEO
NORAD 2639·PAYLOAD· XX

Lançado Jan 11, 1967 de Cape Canaveral Space Force Station

Loading…

TLE

AtualizadoSource: Space-Track

Época: Sep 14, 2026, 21:55 UTC

1 02639U 67001A   26257.91368071 -.00000170  00000-0  00000-0 0  9990
2 02639   3.4765  76.1681 0006822 191.0884 325.4261  1.00152718120141

Acompanhe INTELSAT 2-F2 em tempo real com AllMySat

Download on the App Store